CAPE
0 1 0 0 0 0 0 0 0 0 0 0 0 0 0 0 0 0 0 0 0 0 0 0 0 0 0 0 0 0 0 0 0 0 0 0 0 1 1 1 1 0 0 0
0 0 0 0 0 0 0 0 0 0 0 0 0 0 0 0 0 0 0 0 0 0 0 0 0 0 0 0 0 0 0 0 0 0 0 0 0 0 0 0 0 1 0 1
0 0 0 0 0 0 0 0 0 0 0 0 0 0 0 0 0 0 0 0 0 0 0 0 0 0 0 0 0 0 0 0 0 0 0 0 0 0 0 0 1 0 0 1
0 0 0 0 0 0 0 0 0 0 0 0 0 0 0 0 0 0 0 0 0 0 0 0 0 0 0 0 0 0 0 0 0 0 0 0 0 0 0 0 0 0 0 0
4 2 0 0 0 0 0 0 0 0 0 0 0 0 0 0 0 0 0 0 0 0 0 0 0 0 0 0 0 0 0 0 0 0 0 0 0 0 0 0 0 0 1 0
0 0 0 0 0 0 0 0 0 0 0 0 0 0 0 0 0 0 0 0 0 0 0 0 0 0 0 0 0 0 0 0 2 0 0 0 0 0 0 0 0 0 0 0
0 0 0 0 0 0 0 0 0 0 0 0 0 0 0 0 0 0 0 0 0 0 0 0 0 0 0 0 0 0 0 0 0 1 0 2 2 0 0 0 0 0 0 0
0 0 0 0 0 0 0 0 0 0 0 0 0 0 0 0 0 0 0 0 0 0 0 0 0 0 0 0 0 0 0 0 0 0 0 0 2 2 0 0 0 0 0 0
0 0 0 0 0 0 0 0 0 0 0 0 0 0 0 0 0 0 0 0 0 0 0 0 0 0 0 0 0 0 0 0 0 0 0 0 0 0 0 0 0 0 0 0
0 0 0 0 0 0 0 0 0 0 0 0 0 0 0 0 0 0 0 0 0 0 0 0 0 0 0 0 0 0 0 0 0 0 0 0 0 0 0 0 0 0 0 0
0 0 0 0 0 0 0 0 0 0 0 0 0 0 0 0 0 0 0 0 0 0 0 0 0 0 0 0 0 0 0 0 0 0 0 0 0 0 0 0 0 0 0 0
0 0 0 0 0 0 0 0 0 0 0 0 0 0 0 0 0 0 0 0 0 0 0 0 0 0 0 0 0 0 0 0 0 0 0 0 0 0 0 0 0 0 0 0
0 0 0 0 0 0 0 0 0 0 0 0 0 0 1 0 0 0 0 0 0 0 0 0 0 0 0 0 0 0 0 0 0 0 0 0 0 0 0 0 0 0 0 0
0 0 0 0 0 0 0 0 3 2 0 0 0 0 0 0 0 0 0 0 0 0 0 0 0 0 0 0 0 0 0 0 0 0 0 0 0 0 0 0 0 0 0 0
0 0 0 0 0 0 0 0 0 2 0 0 0 0 0 0 0 0 0 0 0 0 0 0 0 0 0 0 0 0 0 0 0 0 0 0 0 0 0 0 0 0 0 0
0 0 0 0 0 0 0 0 0 1 1 0 0 0 0 0 0 0 0 0 0 0 0 0 0 0 0 0 0 0 0 0 0 0 0 0 0 0 0 0 0 0 0 0
0 0 0 0 0 1 1 0 0 0 0 0 0 0 0 0 0 0 0 0 0 0 0 0 0 0 0 0 0 0 0 0 0 0 0 0 0 0 0 0 0 0 0 0
0 0 0 0 0 0 1 0 0 0 0 0 0 0 0 0 0 0 0 0 0 0 0 0 0 0 0 0 0 0 0 0 0 0 0 0 0 0 0 0 0 0 0 0
0 0 0 0 0 0 0 0 0 0 0 0 0 0 0 0 0 0 0 0 0 0 0 0 0 0 0 0 0 0 0 0 0 0 0 0 0 0 0 0 0 0 0 0
0 0 0 0 0 0 0 0 0 0 0 0 0 0 0 0 0 0 0 0 0 0 0 0 0 0 0 0 0 0 0 0 0 0 0 0 0 0 0 0 0 0 0 0
0 0 0 0 0 0 0 0 0 0 0 0 0 0 0 0 0 0 0 0 0 0 0 0 0 0 0 0 0 0 0 0 0 0 0 0 0 0 0 0 0 0 0 0
0 0 0 0 0 0 0 0 0 0 0 0 0 0 0 0 0 0 0 0 0 0 0 0 0 0 0 0 0 0 0 0 0 0 0 0 0 0 0 0 0 0 0 0
0 0 0 0 0 0 0 0 0 0 0 0 0 0 0 0 0 0 0 0 0 0 0 0 0 0 0 0 0 0 0 0 0 0 0 0 0 0 0 0 0 0 0 0
0 0 0 0 0 0 0 0 0 0 0 0 0 0 0 0 0 0 0 0 0 0 0 0 0 0 0 0 0 0 0 0 0 0 0 0 0 0 0 0 0 0 0 0
0 0 0 0 0 0 0 0 0 0 0 0 0 0 0 0 0 0 0 0 0 0 0 0 0 0 0 0 0 0 0 0 0 0 0 0 0 0 0 0 0 0 0 0
0 0 0 0 0 0 0 0 0 0 0 0 0 0 0 0 0 0 0 0 0 0 0 0 0 0 0 0 0 0 0 0 0 0 0 0 0 0 0 0 0 0 0 0
0 0 0 0 0 0 0 0 0 0 0 0 0 0 0 0 0 0 0 0 0 0 0 0 0 0 0 0 0 0 0 0 0 0 0 0 0 0 0 0 0 0 0 0
CIN
-1 -5 0 0 0 0 0 0 0 0 0 0 0 0 0 0 0 0 0 0 0 0 0 0 0 0 0 0 0 0 0 0 0 0 0 0 0 0 0 0 0 0 0 0
0 0 0 0 0 0 0 0 0 0 0 0 0 0 0 0 0 0 0 0 0 0 0 0 0 0 0 0 0 0 0 0 0 0 0 0 0 0 0 0 0 0 0 0
0 0 0 0 0 0 0 0 0 0 0 0 0 0 0 0 0 0 0 0 0 0 0 0 0 0 0 0 0 0 0 0 0 0 0 0 0 0 0 0 0 0 0 0
-1 0 0 0 0 0 0 0 0 0 0 0 0 0 0 0 0 0 0 0 0 0 0 0 0 0 0 0 0 0 0 0 0 0 0 0 0 0 0 0 0 0 0 -1
-3 -1 0 0 0 0 0 0 0 0 0 0 0 0 0 0 0 0 0 0 0 0 0 0 0 0 0 0 0 0 0 0 0 0 0 0 0 0 0 0 0 0 0 0
0 0 -1 0 0 0 0 0 0 0 0 0 0 0 0 0 0 0 0 0 0 0 0 0 0 0 0 0 0 0 0 0 0 0 0 0 0 0 0 0 0 0 0 0
0 -2 -1 0 0 0 0 0 0 0 0 0 0 0 0 0 0 0 0 0 0 0 0 0 0 0 0 0 0 0 0 0 0 0 -1 0 0 -1 0 0 0 0 0 0
0 0 0 0 0 0 0 0 0 0 0 0 0 0 0 0 0 0 0 0 0 0 0 0 0 0 0 0 0 0 0 0 0 0 0 -1 -1 -1 -1 0 0 0 0 0
0 0 0 0 -1 0 0 0 0 0 0 0 0 0 0 0 0 0 0 0 0 0 0 0 0 0 0 0 0 0 0 0 0 0 0 0 0 -1 0 0 0 0 0 -1
0 0 0 0 0 0 0 0 0 0 0 0 0 0 0 0 0 0 0 0 0 0 0 0 0 0 0 0 0 0 0 0 0 0 0 0 0 0 0 0 0 0 0 0
0 0 0 0 0 0 0 0 0 0 0 0 0 0 0 0 0 0 0 0 0 0 0 0 0 0 0 0 0 0 0 0 0 0 0 0 0 0 0 -1 0 0 0 0
0 0 0 0 0 0 0 0 0 0 0 0 0 0 0 0 0 0 0 0 0 0 0 0 0 0 0 0 0 0 0 0 0 0 0 0 0 0 0 0 0 0 0 0
0 0 0 0 0 0 0 0 0 0 0 0 0 0 0 0 0 0 0 0 0 0 0 0 0 0 0 0 0 0 0 0 0 0 0 0 0 0 0 0 0 0 0 0
0 0 0 0 0 0 0 0 0 0 0 0 0 0 0 0 0 0 0 0 0 0 0 0 0 0 0 0 0 0 0 0 0 0 0 0 0 0 0 0 0 0 0 0
0 0 0 0 0 0 0 0 0 0 0 0 0 0 0 0 0 0 0 0 0 0 0 0 0 0 0 0 0 0 0 0 0 0 0 0 0 0 0 0 0 0 0 0
0 0 0 0 0 0 0 0 0 0 0 0 0 0 0 0 0 0 0 0 0 0 0 0 0 0 0 0 0 0 0 0 0 0 0 0 0 0 0 0 0 0 0 0
0 0 0 0 0 0 0 0 0 0 0 0 0 0 0 0 0 0 0 0 0 0 0 0 0 0 0 0 0 0 0 0 0 0 0 0 0 0 0 0 0 0 0 0
0 0 0 0 0 0 0 0 0 0 0 0 0 0 0 0 0 0 0 0 0 0 0 0 0 0 0 0 0 0 0 0 0 0 0 0 0 0 0 0 0 0 0 0
0 0 0 0 0 0 0 0 0 0 0 0 0 0 0 0 0 0 0 0 0 0 0 0 0 0 0 0 0 0 0 0 0 0 0 0 0 0 0 0 0 0 0 0
0 0 0 0 0 0 0 0 0 0 0 0 0 0 0 0 0 0 0 0 0 0 0 0 0 0 0 0 0 0 0 0 0 0 0 0 0 0 0 0 0 0 0 0
0 0 0 0 0 0 0 0 0 0 0 0 0 0 0 0 0 0 0 0 0 0 0 0 0 0 0 0 0 0 0 0 0 0 0 0 0 0 0 0 0 0 0 0
0 0 0 0 0 0 0 0 0 0 0 0 0 0 0 0 0 0 0 0 0 0 0 0 0 0 0 0 0 0 0 0 0 0 0 0 0 0 0 0 0 0 0 0
0 0 0 0 0 0 0 0 0 0 0 0 0 0 0 0 0 0 0 0 0 0 0 0 0 0 0 0 0 0 0 0 0 0 0 0 0 0 0 0 0 0 0 0
0 0 0 0 0 0 0 0 0 0 0 0 0 0 0 0 0 0 0 0 0 0 0 0 0 0 0 0 0 0 0 0 0 0 0 0 0 0 0 0 0 0 0 0
0 0 0 0 0 0 0 0 0 0 0 0 0 0 0 0 0 0 0 0 0 0 0 0 0 0 0 0 0 0 0 0 0 0 0 0 0 0 0 0 0 0 0 0
0 0 0 0 0 0 0 0 0 0 0 0 0 0 0 0 0 0 0 0 0 0 0 0 0 0 0 0 0 0 0 0 0 0 0 0 0 0 0 0 0 0 0 0
0 0 0 0 0 0 0 0 0 0 0 0 0 0 0 0 0 0 0 0 0 0 0 0 0 0 0 0 0 0 0 0 0 0 0 0 0 0 0 0 0 0 0 0
Wind_Speed
28 28 30 31 32 33 34 33 33 32 32 51 45 34 17 13 13 15 15 15 18 20 22 24 26 27 28 29 31 33 35 37 39 40 42 42 43 42 45 35 35 27 24 21
31 29 31 35 34 35 32 31 32 31 38 44 35 23 13 8 9 13 14 14 16 18 20 23 24 25 26 28 30 31 33 34 36 37 39 40 40 36 36 32 29 30 34 31
34 30 34 39 31 29 27 25 26 32 35 27 27 18 11 8 10 13 13 12 15 17 19 21 22 23 25 26 28 29 31 32 33 34 36 36 36 36 32 28 28 34 34 33
34 32 35 29 26 29 30 31 28 33 33 27 24 17 12 9 11 12 12 13 15 16 17 19 20 22 22 24 26 28 28 29 30 31 32 31 33 34 34 35 36 27 27 29
27 29 34 35 30 26 24 29 26 29 24 21 16 15 16 11 11 11 11 13 14 15 16 17 19 20 21 23 24 25 26 26 28 28 29 29 29 30 29 29 31 36 32 26
24 31 35 30 27 20 22 37 26 24 19 16 12 20 17 8 9 10 11 13 14 14 15 17 18 18 20 22 23 24 24 24 24 25 26 27 27 29 28 29 30 30 32 31
21 26 24 25 23 17 28 30 25 24 19 14 17 19 13 8 10 10 11 13 14 15 15 16 16 17 18 20 22 22 22 23 23 23 23 24 24 26 26 27 29 31 32 33
21 22 35 17 18 18 19 22 24 23 19 13 16 14 9 9 9 9 11 12 13 14 15 15 15 16 17 19 20 20 21 22 23 23 23 23 24 25 26 28 30 31 31 32
16 22 22 18 16 19 21 13 16 20 16 13 12 10 8 8 8 9 10 11 12 13 14 15 15 16 17 18 18 19 21 23 24 24 23 24 25 26 26 28 29 30 31 32
28 29 17 18 17 18 18 8 10 11 10 8 9 7 6 7 8 9 10 10 11 12 13 14 15 16 17 17 18 19 21 22 24 25 24 25 26 26 28 29 30 31 32 32
38 35 32 18 19 19 17 15 12 12 10 9 8 7 5 6 7 8 9 10 10 11 12 13 14 15 16 17 17 19 21 22 24 24 25 25 26 27 28 29 30 31 32 33
37 36 21 28 20 16 12 12 11 10 11 9 7 6 6 6 7 8 9 9 10 11 11 12 13 14 16 18 18 18 20 22 24 25 25 26 26 27 28 29 30 31 32 33
33 27 22 21 16 13 12 10 10 10 9 8 8 7 7 7 7 8 9 9 9 10 10 11 12 14 16 17 18 19 21 23 24 26 27 28 28 29 30 31 31 32 33 33
19 18 19 13 15 11 12 10 10 9 8 8 8 8 8 8 9 8 8 8 9 9 10 11 12 14 15 16 18 19 21 24 25 27 28 29 29 30 31 33 34 34 34 34
13 16 18 12 11 8 8 7 7 7 7 8 8 9 8 8 8 8 8 8 8 9 10 11 11 13 15 16 18 20 22 25 28 29 29 29 30 31 32 33 33 34 35 35
11 12 10 8 6 5 4 4 5 5 6 7 8 8 8 8 8 7 7 7 7 8 9 10 11 13 15 17 19 22 24 27 29 30 30 31 31 32 32 33 33 34 35 37
8 11 7 6 4 3 1 3 3 4 6 7 7 8 8 7 6 6 6 7 8 8 9 10 12 14 17 20 21 23 26 29 30 30 30 31 32 32 32 33 34 35 35 36
9 6 3 5 2 1 3 3 4 6 6 7 7 7 7 5 4 4 5 7 8 9 10 11 13 16 18 20 23 25 27 29 29 30 30 31 31 32 32 33 34 35 35 36
8 8 6 5 4 5 4 5 6 7 7 7 7 6 6 5 5 5 5 6 6 8 10 11 13 17 20 22 24 26 27 29 29 30 30 30 31 32 33 34 33 34 35 36
8 8 6 6 6 6 7 8 9 8 8 8 7 7 6 5 5 5 5 5 7 10 9 11 15 18 20 23 25 26 28 29 29 30 30 30 32 32 32 33 34 35 36 36
6 6 7 8 8 9 10 10 9 8 7 7 7 6 6 6 5 5 4 6 8 9 10 13 16 19 21 23 25 27 28 28 29 29 31 32 32 32 33 34 35 36 37 37
8 9 10 11 11 10 10 9 9 8 8 7 7 6 5 5 5 5 7 7 7 8 12 15 17 19 21 24 25 26 27 27 28 29 30 31 32 33 34 35 36 36 36 36
10 11 11 11 11 10 10 10 9 9 8 7 6 5 4 4 4 5 7 7 7 9 13 16 17 20 22 24 25 26 26 27 29 30 30 30 32 33 34 35 36 36 36 37
11 12 12 11 11 10 9 9 9 8 8 7 6 6 5 6 7 10 11 8 9 11 14 16 18 20 22 24 24 25 26 27 28 29 29 29 31 32 33 35 36 36 36 36
11 11 11 10 10 10 10 10 10 9 8 8 7 6 6 7 9 8 9 10 10 12 15 17 19 21 23 23 24 24 25 26 28 28 29 30 32 33 34 34 35 35 34 34
9 9 9 9 9 9 9 9 8 8 7 7 7 7 8 9 10 9 10 10 12 14 16 17 20 22 23 24 23 24 25 27 28 28 29 31 32 33 34 34 34 33 32 32
8 8 9 9 9 9 8 8 8 7 7 7 7 8 8 9 9 9 10 11 13 16 18 19 21 23 24 23 23 24 26 27 27 28 30 31 32 32 32 32 32 31 31 32
Wind_Direction
310 312 313 312 310 309 305 303 301 301 303 290 296 308 309 314 314 322 337 346 350 355 358 2 3 8 13 15 14 8 12 15 19 23 23 19 19 16 22 13 15 16 18 24
310 313 312 309 311 308 304 303 300 303 259 295 306 318 326 326 319 324 333 347 351 356 359 360 3 7 12 14 12 6 8 10 15 16 18 18 18 12 14 13 13 16 19 17
309 317 316 312 316 318 319 318 313 306 307 315 316 326 335 337 326 326 334 349 352 355 358 1 3 8 10 13 11 9 4 5 8 10 14 12 13 14 10 10 11 17 18 20
309 317 312 321 329 321 314 308 308 304 307 308 312 325 337 347 332 330 338 348 352 354 358 2 5 9 13 14 14 11 1 1 4 5 7 5 10 13 14 15 18 12 14 17
312 312 315 320 328 328 322 311 312 307 318 317 320 325 329 345 344 342 347 351 355 357 360 3 5 10 12 13 13 7 358 357 2 4 4 5 4 5 5 7 12 20 15 12
316 316 318 329 334 331 322 284 320 323 327 321 326 313 326 346 355 354 355 359 357 359 2 3 6 10 12 12 10 2 353 354 355 359 0 1 3 4 4 6 11 12 15 15
311 315 322 331 334 336 302 303 325 326 327 327 319 323 346 3 1 10 4 3 3 2 3 6 10 15 14 12 6 356 352 356 354 351 351 352 356 358 359 2 6 9 13 13
321 320 299 348 346 334 342 334 327 323 328 332 328 335 0 7 15 13 10 8 11 11 11 16 21 19 15 7 359 355 354 358 356 351 350 350 352 354 356 360 4 6 6 7
317 316 323 336 327 332 335 335 336 335 338 340 339 346 356 10 15 17 19 17 21 23 26 27 24 16 9 360 358 3 5 3 1 354 349 349 350 349 350 352 355 357 359 1
306 303 314 328 324 323 331 340 346 348 359 6 359 7 12 19 25 21 22 26 34 35 32 27 19 10 1 358 10 11 9 7 4 359 350 353 351 351 351 350 351 353 353 354
273 292 304 321 322 327 325 330 343 353 357 5 15 15 34 31 28 31 35 39 39 35 35 26 16 7 2 8 17 15 11 7 2 356 349 349 354 351 350 352 353 352 352 353
258 290 313 318 319 328 337 337 346 359 0 11 22 39 49 45 47 48 50 48 38 30 27 24 15 8 6 11 18 19 12 5 359 356 350 347 344 347 353 352 353 354 355 354
249 310 315 317 325 333 333 345 349 353 6 24 37 52 58 59 61 63 57 42 32 28 25 19 11 7 8 15 15 12 7 1 353 349 348 346 345 343 340 342 348 351 350 350
314 320 320 320 324 328 329 338 350 9 29 36 46 60 70 67 73 68 57 41 38 36 26 17 14 14 14 15 11 7 1 356 351 346 343 342 342 342 342 341 339 341 345 347
311 318 317 328 330 340 349 358 13 26 34 44 59 72 76 77 77 67 48 39 30 19 16 16 15 17 9 6 2 359 356 351 346 345 343 343 342 341 339 339 339 340 341 344
323 328 331 330 334 346 10 37 27 34 55 65 73 74 78 75 70 58 48 39 31 17 20 21 16 10 2 1 357 351 348 345 343 343 343 342 342 342 341 341 341 341 341 341
327 324 336 336 337 345 69 67 58 72 80 83 83 81 80 77 63 50 28 19 17 22 15 12 4 357 351 347 349 345 342 341 342 343 343 343 342 342 342 342 342 342 342 343
315 334 351 344 4 92 106 69 87 92 98 90 85 82 81 88 68 45 33 14 12 16 8 1 358 355 352 349 346 344 344 344 345 345 345 344 344 344 344 344 343 342 342 342
313 328 347 10 80 105 92 93 96 87 84 89 89 90 89 76 65 46 37 33 21 1 1 1 1 353 348 347 348 347 345 345 345 346 346 347 347 347 345 345 345 344 343 342
328 341 19 52 71 87 88 94 96 91 88 90 86 88 89 80 76 70 49 23 8 358 9 5 355 351 350 348 348 347 346 345 345 346 347 347 347 346 347 346 345 344 343 342
14 43 68 77 80 85 96 99 94 89 84 91 96 94 91 83 75 67 41 11 1 4 2 357 351 349 348 348 347 347 346 346 346 347 346 346 346 346 345 345 343 342 342 342
62 77 79 83 85 77 77 81 77 75 82 82 74 70 72 76 65 28 1 355 1 1 353 349 349 348 348 348 348 347 348 348 348 348 347 347 345 345 344 343 343 343 343 343
77 79 81 82 78 72 67 67 72 81 82 81 79 75 68 50 34 13 355 1 4 357 351 348 349 349 349 348 348 348 348 348 348 347 347 347 346 345 345 344 344 343 343 342
75 75 71 66 64 62 56 60 65 67 64 60 58 59 53 40 19 355 356 6 0 353 349 352 351 350 349 349 350 349 349 349 348 348 348 349 346 346 345 344 343 343 343 343
73 68 63 62 56 48 50 57 54 53 52 40 36 35 24 22 10 14 7 4 7 359 355 354 353 352 351 350 350 350 349 349 349 349 347 347 346 345 345 345 345 345 345 346
65 58 55 50 45 48 50 54 45 50 50 40 32 23 10 7 8 12 10 9 4 0 356 355 352 351 350 350 350 350 350 349 349 348 347 347 346 346 346 346 347 348 349 349
43 47 41 33 32 38 43 45 46 47 52 46 34 27 23 18 19 20 18 9 2 357 354 352 351 350 350 351 351 350 349 349 350 348 347 347 347 348 348 349 350 351 351 351